[[{"header":{"parameterUnit":"m.s-1","parameterCategory":1,"la1":30.2991,"la2":30.254,"lo1":-89.0895,"lo2":-89.0444,"dy":0.0017,"dx":0.0017,"nx":28,"ny":28,"refTime":"2024-10-18T21:00:00:Z","depth":0,"parameterNumber":2,"parameterNumberName":"U-component_of_WINDS"},"data":[0,0,0,0,0,0,0,0,0,0,0,0,0,0,0,0,0,0,0,0,0,0,0,0,0,0,0,0,0,0,0,0,0,0,0,0,0,0,0,0,0,0,0,0,0,0,0,0,0,0,0,0,0,0,0,0,0,0,-3.9291,-3.9292,0,-3.9362,-3.9363,-3.9364,-3.9224,-3.9219,-3.9214,-3.921,-3.9285,-3.9292,-3.9298,0,0,0,0,0,0,0,0,0,0,0,0,0,-3.9034,-3.904,-3.9291,-3.9292,-3.9293,-3.9362,-3.9363,-3.9364,-3.9225,-3.9219,-3.9213,-3.9208,-3.9283,-3.9291,-3.9298,0,0,0,0,0,0,0,0,0,0,0,0,0,-3.913,-3.9041,-3.9291,-3.9231,-3.9227,-3.9362,-3.9363,-3.9365,-3.9226,-3.9219,-3.9212,-3.9205,-3.9281,-3.929,-3.9299,-3.9497,0,0,-3.9328,-3.9333,0,0,0,0,0,0,0,0,-3.9125,-3.9139,-3.9239,-3.9236,-3.9231,-3.9277,-3.93,-3.9409,-3.9227,-3.9226,-3.921,-3.9202,-3.9288,-3.9297,-3.9326,-3.95,-3.9503,-3.9329,-3.9335,-3.9339,-3.9342,0,0,0,0,0,0,0,-3.9118,-3.9136,-3.9319,-3.9241,-3.9236,-3.9201,-3.9207,-3.932,-3.9295,-3.9226,-3.9216,-3.9226,-3.9285,-3.9317,-3.9326,-3.9505,-3.9329,-3.9337,-3.9343,-3.9347,-3.9844,-3.9852,0,0,0,0,0,0,-3.9119,-3.9131,-3.9317,-3.9321,-3.9159,-3.9212,-3.9218,-3.9269,-3.9294,-3.9291,-3.9232,-3.9219,-3.9304,-3.9315,-3.9328,-3.9561,-3.9339,-3.9348,-3.9353,-3.9837,-3.9846,-3.9854,0,0,0,0,0,0,-3.9114,-3.9137,-3.9314,-3.9224,-3.9243,-3.9223,-3.9282,-3.9274,-3.9306,-3.9298,-3.9293,-3.9269,-3.9299,-3.9315,-3.9456,-3.9562,-3.9352,-3.9361,-3.9828,-3.984,-3.985,-4.0029,0,0,0,0,0,0,-3.9107,-3.9136,-3.9211,-3.9226,-3.9249,-3.9441,-3.9288,-3.9281,-3.9323,-3.9307,-3.9332,-3.933,-3.9295,-3.9442,-3.9465,-3.9571,-3.9368,-3.9818,-3.9833,-3.9847,-4.0013,-4.0045,-4.0072,0,0,0,0,0,-3.9098,-3.9258,-3.9215,-3.9238,-3.9342,-3.9447,-3.946,-3.9416,-3.9332,-3.9407,-3.9401,-3.9329,-3.9546,-3.9458,-3.9482,-3.9593,-3.9812,-3.9829,-3.9846,-4.0,-4.0038,-4.0071,0,0,0,0,0,0,-3.9257,-3.9259,-3.9211,-3.9381,-3.9415,-3.9423,-3.9516,-3.9458,-3.9517,-3.95,-3.9443,-3.945,-3.9602,-3.9611,-3.9513,-3.9785,-3.9665,-3.9687,-3.9774,-3.981,-3.9839,-3.9834,-3.9376,0,0,0,0,0,-3.9311,-3.9396,-3.9394,-3.9544,-3.9563,-3.9537,-3.9581,-3.9545,-3.9577,-3.9591,-3.9596,-3.9632,-3.9707,-3.9759,-3.9828,-4.0013,-4.0017,-4.0101,-4.013,-4.0154,-4.0175,-4.0273,-4.0311,-3.991,-3.991,-3.9909,0,0,-3.9425,-3.9437,-3.9494,-3.9576,-3.9598,-3.9687,-3.955,-3.9651,-3.9717,-3.9607,-3.974,-3.9745,-3.978,-3.9944,-4.0016,-3.9956,-4.0286,-4.0176,-4.0195,-4.0203,-4.0295,-4.0333,-4.0367,-3.9921,-3.9919,-3.9917,0,0,-3.9678,-3.9696,-3.9823,-3.9847,-3.9881,-3.9863,-3.9893,-3.991,-3.9909,-4.0042,-3.9961,-4.0038,-4.0171,-4.0199,-4.0231,-4.0494,-4.043,-4.0518,-4.0672,-4.0768,-4.08,-4.0828,-4.0922,-4.0957,-4.0539,-4.0539,-4.054,0,-3.9816,-3.9947,-3.9895,-4.0002,-4.004,-3.9943,-4.0071,-4.0098,-4.0154,-4.0183,-4.0114,-4.0277,-4.0294,-4.0463,-4.0528,-4.0556,-4.059,-4.0516,-4.0799,-4.0827,-4.0852,-4.0942,-4.0977,-4.055,-4.0549,-4.0548,-4.0547,0,-4.0115,-4.0207,-4.0305,-4.0361,-4.041,-4.0527,-4.0493,-4.055,-4.0508,-4.0497,-4.0633,-4.065,-4.0721,-4.0758,-4.0719,-4.0922,-4.0884,-4.0808,-4.0687,-4.0902,-4.0985,-4.1019,-4.0565,-4.0561,-4.0558,-4.0556,0,0,-4.0472,-4.0496,-4.0533,-4.0557,-4.0587,-4.0658,-4.077,-4.0839,-4.0889,-4.093,-4.1023,-4.1137,-4.1067,-4.1103,-4.1066,-4.1151,-4.1359,-4.1065,-4.1064,-4.112,-4.1585,-4.1642,-4.1683,-4.1316,-4.1322,-4.1327,-4.1582,0,-4.0724,-4.0917,-4.0873,-4.1063,-4.1148,-4.1057,-4.1154,-4.1184,-4.1176,-4.1247,-4.1238,-4.132,-4.1221,-4.1242,-4.1322,-4.1317,-4.1452,-4.1298,-4.1403,-4.1407,-4.1399,-4.1726,-4.1788,-4.2028,-4.1614,-4.162,-4.1624,0,-4.1044,-4.1097,-4.1296,-4.1312,-4.1346,-4.1434,-4.1494,-4.1562,-4.1594,-4.1582,-4.1623,-4.1569,-4.168,-4.1556,-4.1709,-4.1606,-4.1646,-4.165,-4.1658,-4.1667,-4.153,-4.1746,-4.2103,-4.214,-4.1674,-4.167,-4.1667,0,-4.1286,-4.1406,-4.1541,-4.1564,-4.1586,-4.165,-4.1663,-4.1687,-4.1731,-4.1783,-4.1811,-4.1875,-4.1911,-4.1963,-4.1928,-4.1841,-4.2088,-4.196,-4.2082,-4.2083,-4.2139,-4.2137,-4.251,-4.2164,-4.2163,-4.2162,-4.2162,0,-4.1573,-4.1698,-4.165,-4.1733,-4.1871,-4.1819,-4.1957,-4.1958,-4.1981,-4.2062,-4.1987,-4.2065,-4.2014,-4.2089,-4.2062,-4.2193,-4.221,-4.2204,-4.2196,-4.2212,-4.2213,-4.2239,-4.2222,-4.2172,-4.217,-4.2168,-4.2166,0,-4.1867,-4.1839,-4.198,-4.1988,-4.1993,-4.2095,-4.2102,-4.218,-4.2165,-4.227,-4.2292,-4.2271,-4.2354,-4.2324,-4.2414,-4.2396,-4.2564,-4.2533,-4.2554,-4.2546,-4.267,-4.2659,-4.3074,-4.3126,-4.2745,-4.2749,-4.2752,0,-4.2052,-4.2147,-4.2165,-4.2214,-4.2232,-4.2312,-4.2356,-4.2308,-4.2357,-4.24,-4.2472,-4.2549,-4.2608,-4.2746,-4.2739,-4.2808,-4.2779,-4.2919,-4.2789,-4.2802,-4.2782,-4.2778,-4.2787,-4.2946,-4.295,-4.2954,-4.2957,0,-4.2385,-4.2367,-4.2433,-4.2495,-4.255,-4.2597,-4.2637,-4.2681,-4.2636,-4.2695,-4.2779,-4.2825,-4.2916,-4.2994,-4.3055,-4.3067,-4.3006,-4.2998,-4.303,-4.3048,-4.3056,-4.3054,-4.2626,-4.2989,-4.2986,-4.2983,-4.2982,-4.298,-4.2631,-4.2711,-4.2736,-4.2813,-4.2837,-4.2877,-4.295,-4.2944,-4.3013,-4.3083,-4.3051,-4.3149,-4.3177,-4.3252,-4.3273,-4.335,-4.3295,-4.3341,-4.3353,-4.3366,-4.3382,-4.3043,-4.336,-4.3359,-4.3358,-4.3358,-4.3357,0,-4.2961,-4.2972,-4.3043,-4.3101,-4.3162,-4.3096,-4.3137,-4.3192,-4.3279,-4.331,-4.3369,-4.3466,-4.3541,-4.3539,-4.3609,-4.367,-4.3644,-4.369,-4.3686,-4.369,-4.3426,-4.3392,-4.371,-4.371,-4.371,-4.371,-4.371,-4.371,-4.314,-4.3271,-4.3255,-4.3398,-4.3408,-4.3503,-4.3532,-4.3568,-4.3592,-4.3704,-4.3765,-4.3763,-4.3781,-4.3851,-4.3917,-4.3914,-4.3944,-4.4002,-4.3989,-4.3743,-4.3708,-4.3675,-4.3643,-4.4008,-4.4009,-4.4246,-4.4249,-4.425]},{"header":{"parameterUnit":"m.s-1","parameterCategory":1,"la1":30.2991,"la2":30.254,"lo1":-89.0895,"lo2":-89.0444,"dy":0.0017,"dx":0.0017,"nx":28,"ny":28,"refTime":"2024-10-18T21:00:00:Z","depth":0,"parameterNumber":3,"parameterNumberName":"V-component_of_WINDS"},"data":[0,0,0,0,0,0,0,0,0,0,0,0,0,0,0,0,0,0,0,0,0,0,0,0,0,0,0,0,0,0,0,0,0,0,0,0,0,0,0,0,0,0,0,0,0,0,0,0,0,0,0,0,0,0,0,0,0,0,-3.1058,-3.1058,0,-3.1062,-3.1062,-3.1062,-3.1031,-3.103,-3.103,-3.1029,-3.1032,-3.1032,-3.1033,0,0,0,0,0,0,0,0,0,0,0,0,0,-3.102,-3.102,-3.1058,-3.1058,-3.1058,-3.1062,-3.1062,-3.1062,-3.1031,-3.103,-3.1029,-3.1028,-3.1031,-3.1032,-3.1033,0,0,0,0,0,0,0,0,0,0,0,0,0,-3.1031,-3.1021,-3.1057,-3.1043,-3.1042,-3.1062,-3.1062,-3.1062,-3.1032,-3.103,-3.1029,-3.1028,-3.1031,-3.1032,-3.1033,-3.1067,0,0,-3.1037,-3.1038,0,0,0,0,0,0,0,0,-3.1031,-3.1033,-3.1045,-3.1044,-3.1043,-3.1045,-3.1049,-3.1064,-3.1032,-3.1035,-3.1029,-3.1027,-3.1037,-3.1038,-3.1041,-3.1067,-3.1067,-3.1038,-3.1038,-3.1039,-3.1039,0,0,0,0,0,0,0,-3.103,-3.1032,-3.1059,-3.1045,-3.1044,-3.1035,-3.1035,-3.1052,-3.1043,-3.1035,-3.1033,-3.1034,-3.1036,-3.104,-3.1041,-3.1067,-3.1038,-3.1039,-3.1039,-3.104,-3.1118,-3.1119,0,0,0,0,0,0,-3.1031,-3.1032,-3.1059,-3.1059,-3.1033,-3.1037,-3.1037,-3.1045,-3.1043,-3.1041,-3.1035,-3.1032,-3.1038,-3.1039,-3.1041,-3.1078,-3.1039,-3.104,-3.1041,-3.1117,-3.1118,-3.112,0,0,0,0,0,0,-3.1031,-3.1034,-3.1059,-3.1045,-3.1047,-3.1039,-3.1048,-3.1046,-3.105,-3.1043,-3.1041,-3.1041,-3.1037,-3.1039,-3.106,-3.1078,-3.1041,-3.1042,-3.1115,-3.1117,-3.1119,-3.1154,0,0,0,0,0,0,-3.103,-3.1034,-3.1048,-3.1045,-3.1048,-3.1079,-3.105,-3.1047,-3.1053,-3.1049,-3.1048,-3.1046,-3.1037,-3.1058,-3.1062,-3.1079,-3.1043,-3.1114,-3.1116,-3.1119,-3.1151,-3.1157,-3.1162,0,0,0,0,0,-3.1028,-3.1058,-3.1049,-3.1052,-3.1065,-3.108,-3.1082,-3.107,-3.1054,-3.1067,-3.1062,-3.1047,-3.1076,-3.1061,-3.1064,-3.1082,-3.1113,-3.1116,-3.1118,-3.1149,-3.1156,-3.1162,0,0,0,0,0,0,-3.1062,-3.1057,-3.1047,-3.1077,-3.1079,-3.1075,-3.1091,-3.1078,-3.1085,-3.1082,-3.1067,-3.1066,-3.109,-3.1088,-3.1072,-3.1113,-3.1091,-3.1095,-3.1113,-3.112,-3.1125,-3.1124,-3.1044,0,0,0,0,0,-3.1073,-3.1087,-3.1081,-3.1108,-3.1109,-3.11,-3.1106,-3.1097,-3.1099,-3.11,-3.1096,-3.1098,-3.1107,-3.1113,-3.1122,-3.1151,-3.1149,-3.1165,-3.117,-3.1174,-3.1177,-3.119,-3.1196,-3.1129,-3.1129,-3.1129,0,0,-3.1096,-3.1095,-3.1104,-3.1114,-3.1115,-3.1128,-3.1101,-3.1117,-3.1125,-3.1102,-3.1121,-3.1119,-3.1119,-3.1144,-3.1155,-3.1143,-3.1195,-3.1178,-3.1182,-3.1182,-3.1194,-3.12,-3.1206,-3.1131,-3.1131,-3.1131,0,0,-3.1143,-3.1145,-3.1166,-3.1167,-3.1168,-3.1161,-3.1166,-3.1164,-3.1161,-3.1181,-3.1162,-3.1172,-3.1189,-3.1189,-3.1192,-3.1237,-3.1222,-3.124,-3.1267,-3.128,-3.1285,-3.129,-3.1303,-3.1309,-3.1243,-3.1243,-3.1244,0,-3.1171,-3.119,-3.1178,-3.1194,-3.1198,-3.1177,-3.1197,-3.1198,-3.1202,-3.1205,-3.1192,-3.1211,-3.1211,-3.1234,-3.1244,-3.1248,-3.1252,-3.124,-3.1285,-3.129,-3.1294,-3.1307,-3.1312,-3.1245,-3.1245,-3.1245,-3.1245,0,-3.1223,-3.1237,-3.1253,-3.1257,-3.1263,-3.1281,-3.127,-3.1277,-3.1267,-3.1261,-3.1279,-3.1277,-3.1284,-3.1289,-3.1279,-3.131,-3.1303,-3.1288,-3.1265,-3.1302,-3.1314,-3.1319,-3.1248,-3.1248,-3.1247,-3.1247,0,0,-3.1293,-3.1288,-3.1294,-3.1294,-3.1293,-3.1303,-3.1319,-3.1325,-3.1331,-3.1334,-3.1345,-3.1359,-3.1345,-3.1348,-3.1338,-3.1349,-3.1382,-3.1333,-3.1333,-3.134,-3.1413,-3.1423,-3.1429,-3.1373,-3.1374,-3.1374,-3.1412,0,-3.1337,-3.1364,-3.1353,-3.1381,-3.1391,-3.1371,-3.1384,-3.1384,-3.1379,-3.1386,-3.138,-3.1389,-3.1371,-3.1372,-3.1383,-3.1376,-3.1396,-3.1373,-3.1382,-3.1382,-3.1381,-3.1436,-3.1446,-3.1482,-3.1417,-3.1418,-3.1418,0,-3.1393,-3.1397,-3.1426,-3.1421,-3.1425,-3.1438,-3.1441,-3.1449,-3.1448,-3.1443,-3.1445,-3.1432,-3.1446,-3.1424,-3.1441,-3.1426,-3.1428,-3.1426,-3.1427,-3.1426,-3.1402,-3.1434,-3.1494,-3.1498,-3.1426,-3.1425,-3.1425,0,-3.1438,-3.1451,-3.1469,-3.1471,-3.1466,-3.1474,-3.1473,-3.147,-3.1474,-3.1477,-3.1478,-3.1483,-3.1485,-3.1488,-3.1476,-3.1462,-3.1494,-3.1472,-3.1489,-3.1489,-3.1496,-3.1495,-3.1554,-3.15,-3.15,-3.15,-3.15,0,-3.1488,-3.1506,-3.1489,-3.15,-3.1519,-3.1505,-3.1523,-3.1519,-3.1517,-3.1526,-3.1508,-3.1517,-3.1501,-3.1507,-3.1498,-3.1512,-3.1514,-3.1509,-3.1506,-3.151,-3.151,-3.151,-3.1507,-3.1501,-3.1501,-3.1501,-3.1501,0,-3.1541,-3.1531,-3.1549,-3.1542,-3.1541,-3.1554,-3.1548,-3.1557,-3.155,-3.1561,-3.1563,-3.1552,-3.1558,-3.1547,-3.1552,-3.1545,-3.1565,-3.1559,-3.1565,-3.1563,-3.1579,-3.1577,-3.164,-3.1646,-3.159,-3.159,-3.1591,0,-3.1572,-3.1585,-3.158,-3.1584,-3.1583,-3.1591,-3.1594,-3.158,-3.1584,-3.1583,-3.1592,-3.1597,-3.16,-3.1611,-3.1602,-3.1606,-3.1598,-3.162,-3.1599,-3.1601,-3.1596,-3.1595,-3.1595,-3.1624,-3.1625,-3.1625,-3.1626,0,-3.1629,-3.1623,-3.1628,-3.1632,-3.1636,-3.1638,-3.1638,-3.1643,-3.1628,-3.1633,-3.1639,-3.1641,-3.1646,-3.165,-3.1651,-3.1648,-3.1634,-3.1632,-3.1636,-3.1639,-3.1641,-3.1638,-3.1575,-3.1631,-3.163,-3.163,-3.163,-3.1629,-3.1671,-3.1681,-3.1677,-3.1683,-3.1682,-3.1683,-3.169,-3.1683,-3.1688,-3.1691,-3.1682,-3.169,-3.1686,-3.1686,-3.1684,-3.1689,-3.1679,-3.1685,-3.1686,-3.1688,-3.1689,-3.1642,-3.169,-3.1689,-3.1689,-3.1689,-3.1689,0,-3.1725,-3.1721,-3.1727,-3.1728,-3.1732,-3.1718,-3.1718,-3.1722,-3.1729,-3.1727,-3.173,-3.1736,-3.174,-3.1731,-3.1733,-3.1738,-3.1732,-3.1739,-3.1738,-3.1737,-3.1699,-3.1695,-3.1745,-3.1745,-3.1745,-3.1745,-3.1745,-3.1744,-3.1753,-3.1768,-3.1761,-3.1774,-3.177,-3.1778,-3.1778,-3.1778,-3.1776,-3.1783,-3.1786,-3.1781,-3.1775,-3.1776,-3.1779,-3.1776,-3.1776,-3.1786,-3.1781,-3.1745,-3.174,-3.1735,-3.173,-3.1787,-3.1787,-3.1818,-3.1818,-3.1818]}]]